Regional Weather Roundup
Issued by NWS Albany, NY

Home | Current Version | Previous Version | Text Only | Print | Product List | Glossary On
Versions: 1 2 3 4 5 6 7 8 9 10 11 12 13 14 15 16 17 18 19 20 21 22 23 24 25 26 27 28 29 30 31 32 33 34 35 36 37 38 39 40 41 42 43 44 45 46 47 48 49 50
000
ASUS41 KALY 260910
RWRALY

NEW YORK STATE HOURLY WEATHER ROUNDUP
NATIONAL WEATHER SERVICE ALBANY NY
500 AM EDT SUN APR 26 2015

NOTE: "FAIR" INDICATES FEW OR NO CLOUDS BELOW 12,000 FEET WITH NO
SIGNIFICANT WEATHER AND/OR NO OBSTRUCTIONS TO VISIBILITY.

NYZ032-033-038>043-046>054-057>066-NYZ062>081-261000-
EAST


CITY           SKY/WX    TMP DP  RH WIND       PRES   REMARKS
ALBANY         CLOUDY    42  29  59 W3        29.71S
GLENS FALLS    CLOUDY    45  30  55 NW6       29.69S
POUGHKEEPSIE   CLEAR     32  27  81 CALM      29.70R
NEWBURGH       CLEAR     34  28  80 CALM      29.70S
MONTGOMERY     CLEAR     29  26  89 CALM      29.69R
WHITE PLAINS   PTCLDY    42  26  53 N5        29.67R
ISLIP          CLEAR     40  31  70 NE6       29.66R
NEW YORK CITY  CLEAR     46  30  53 NE8       29.67S
CENTRAL PARK   CLEAR     47  27  45 NE7       29.70R
$$

NYZ005>009-017-018-044>046-055-056-261000-
CENTRAL


CITY           SKY/WX    TMP DP  RH WIND       PRES   REMARKS
FULTON         MOCLDY    37  27  67 CALM      29.76R
SYRACUSE       CLOUDY    36  29  75 CALM      29.75S
ROME           CLOUDY    31  29  92 CALM      29.75S
ELMIRA         CLEAR     29  26  89 SW5       29.75R WCI  24
BINGHAMTON     CLEAR     32  25  75 N7        29.70R WCI  26
MONTICELLO     CLEAR     34  25  69 CALM      29.69S
$$

NYZ026>034-041>043-261000-
NORTH


CITY           SKY/WX    TMP DP  RH WIND       PRES   REMARKS
WATERTOWN      CLEAR     28  25  88 CALM      29.76S
FORT DRUM      NOT AVBL
MASSENA        CLOUDY    39  30  70 NW5       29.76R
SARANAC LAKE   CLOUDY    30  28  92 CALM      29.67F
PLATTSBURGH    CLOUDY    43  32  65 NW7       29.71S
$$

NYZ001>004-010>016-019>021-261000-
WEST


CITY           SKY/WX    TMP DP  RH WIND       PRES   REMARKS
NIAGARA FALLS  CLEAR     31  25  78 N5        29.78R WCI  26
BUFFALO        PTCLDY    35  26  69 CALM      29.78R
DUNKIRK        CLEAR     28  25  88 CALM      29.78S
JAMESTOWN      CLEAR     34  21  60 NE5       29.75R WCI  30
WELLSVILLE     PTCLDY    31  22  69 CALM      29.74R
ROCHESTER      MOCLDY    34  29  82 SW3       29.78R
PENN YAN       CLOUDY    34  29  82 SW6       29.76R WCI  29
$$

             KEY
       WCI = WIND CHILL INDEX
       VSB = VISIBILITY
       HX  = HEAT INDEX
$$



USA.gov is the U.S. government's official web portal to all federal, state and local government web resources and services.